Albuquerque, NM

11:01 AM MDT on May 24, 2017 (GMT -0600)
Albuquerque International Sunport

Weather History for KABQ - October, 2010

Change the Weather History Date:

Friday, October 15, 2010

  Actual Average Record
Temperature  
Mean Temperature 63 °F 58 °F  
Max Temperature 76 °F 69 °F 85 °F (1909)
Min Temperature 49 °F 47 °F 29 °F (1914)
Degree Days  
Heating Degree Days 2 7  
Month to date heating degree days 21 74  
Since 1 July heating degree days 21 100  
Cooling Degree Days 0 0  
Month to date cooling degree days 30 7  
Year to date cooling degree days 1634 1319  
Growing Degree Days 12 (Base 50)    
Moisture  
Dew Point 32 °F    
Average Humidity 36    
Maximum Humidity 54    
Minimum Humidity 18    
Precipitation  
Precipitation 0.00 in 0.03 in 1.30 in (1960)
Month to date precipitation 0.09 0.57  
Year to date precipitation 7.70 7.93  
Snow  
Snow 0.00 in - - ()
Month to date snowfall 0.0  
Since 1 July snowfall 0.0  
Since 1 September snowfall 0.0  
Snow Depth 0.00 in    
Sea Level Pressure  
Sea Level Pressure 30.08 in    
Wind  
Wind Speed 4 mph (SSE)    
Max Wind Speed 10 mph    
Max Gust Speed 14 mph    
Visibility 10 miles    
Events      
T = Trace of Precipitation, MM = Missing Value Source: NWS Daily Summary

Daily Weather History Graph

Daily Weather History Graph

Search for Another Location

Airport or City:

Trip Planner

Search our weather history database for the weather conditions in past years. The results will help you decide how hot, cold, wet, or windy it might be!

Date:

Astronomy

Oct. 15, 2010 Rise Set
Actual Time 7:12 AM MDT 6:31 PM MDT
Civil Twilight 6:46 AM MDT 6:56 PM MDT
Nautical Twilight 6:17 AM MDT 7:26 PM MDT
Astronomical Twilight 5:48 AM MDT 7:55 PM MDT
Moon 2:40 PM MDT (10/15) 12:25 AM MDT (10/15)
Length of Visible Light 12h 09m
Length of Day
11h 18m
First Quarter, 58% of the Moon is Illuminated
Oct 15
First Quarter
Oct 22
Full
Oct 30
Last Quarter
Nov 5
New
Nov 13
First Quarter

Hourly Weather History & Observations

Time (MDT) Temp. Dew Point Humidity Pressure Visibility Wind Dir Wind Speed Gust Speed Precip Events Conditions
12:56 AM 57.0 °F 36.0 °F 45% 30.14 in 10.0 mi Calm Calm - N/A   Clear
1:56 AM 55.9 °F 34.0 °F 44% 30.13 in 10.0 mi ESE 9.2 mph - N/A   Clear
2:56 AM 55.9 °F 34.0 °F 44% 30.13 in 10.0 mi SE 3.5 mph - N/A   Clear
3:56 AM 54.0 °F 34.0 °F 47% 30.11 in 10.0 mi Calm Calm - N/A   Clear
4:56 AM 55.0 °F 33.1 °F 43% 30.11 in 10.0 mi Calm Calm - N/A   Clear
5:56 AM 53.1 °F 33.1 °F 47% 30.13 in 10.0 mi Calm Calm - N/A   Clear
6:56 AM 50.0 °F 34.0 °F 54% 30.15 in 10.0 mi SE 9.2 mph - N/A   Partly Cloudy
7:56 AM 52.0 °F 35.1 °F 53% 30.17 in 10.0 mi NNW 3.5 mph - N/A   Partly Cloudy
8:56 AM 57.0 °F 35.1 °F 44% 30.18 in 10.0 mi Calm Calm - N/A   Partly Cloudy
9:56 AM 59.0 °F 35.1 °F 41% 30.17 in 10.0 mi WNW 3.5 mph - N/A   Partly Cloudy
10:56 AM 64.0 °F 35.1 °F 34% 30.14 in 10.0 mi West 3.5 mph - N/A   Partly Cloudy
11:56 AM 68.0 °F 34.0 °F 28% 30.12 in 10.0 mi Variable 5.8 mph - N/A   Partly Cloudy
12:56 PM 71.1 °F 35.1 °F 27% 30.09 in 10.0 mi SW 5.8 mph - N/A   Scattered Clouds
1:56 PM 72.0 °F 33.1 °F 24% 30.05 in 10.0 mi SSW 6.9 mph - N/A   Scattered Clouds
2:56 PM 73.9 °F 32.0 °F 21% 30.02 in 10.0 mi SSW 5.8 mph - N/A   Scattered Clouds
3:56 PM 75.0 °F 28.9 °F 18% 30.00 in 10.0 mi SSW 9.2 mph - N/A   Scattered Clouds
4:56 PM 75.9 °F 30.0 °F 19% 29.98 in 10.0 mi Calm Calm - N/A   Mostly Cloudy
5:56 PM 73.9 °F 28.9 °F 19% 29.98 in 10.0 mi SSE 5.8 mph - N/A   Mostly Cloudy
6:56 PM 69.1 °F 30.9 °F 24% 30.01 in 10.0 mi ESE 4.6 mph - N/A   Scattered Clouds
7:56 PM 64.9 °F 30.0 °F 27% 30.03 in 10.0 mi ESE 6.9 mph - N/A   Scattered Clouds
8:56 PM 64.9 °F 28.0 °F 25% 30.02 in 10.0 mi SSE 5.8 mph - N/A   Scattered Clouds
9:56 PM 62.1 °F 28.0 °F 28% 30.04 in 10.0 mi SE 3.5 mph - N/A   Scattered Clouds
10:56 PM 62.1 °F 28.9 °F 29% 30.04 in 10.0 mi Calm Calm - N/A   Partly Cloudy
11:56 PM 60.1 °F 33.1 °F 36% 30.02 in 10.0 mi East 4.6 mph - N/A   Partly Cloudy